Tracking 26321 objects as of 27-Nov-2022
HD Live streaming from Space Station
objects crossing your sky now

STARLINK-4787

Track STARLINK-4787 now!
10-day predictions
STARLINK-4787 is classified as:


NORAD ID: 53904
Int'l Code: 2022-119U
Perigee: 502.1 km
Apogee: 504.4 km
Inclination: 53.2 °
Period: 94.5 minutes
Semi major axis: 6874 km
RCS: Unknown
Launch date: September 24, 2022
Source: United States (US)
Launch site: AIR FORCE EASTERN TEST RANGE (AFETR)
aabbcc
Your satellite tracking list
Your tracking list is empty




NASA's NSSDC Master Catalog

Two Line Element Set (TLE):
1 53904U 22119U   22330.91667824 -.01187929  00000-0 -53847-1 0  9996
2 53904  53.2171 305.5105 0001642  34.7626 266.4715 15.23224778  1308
Source of the keplerian elements: AFSPC